TimeCST,TemperatureF,Dew PointF,Humidity,Sea Level PressureIn,VisibilityMPH,Wind Direction,Wind SpeedMPH,Gust SpeedMPH,PrecipitationIn,Events,Conditions,WindDirDegrees,DateUTC
12:53 AM,37.9,30.0,73,30.29,10.0,North,9.2,-,N/A,,Clear,360,2013-02-01 06:53:00
1:21 AM,35.6,28.4,75,30.31,10.0,NNE,15.0,23.0,N/A,,Mostly Cloudy,20,2013-02-01 07:21:00
1:31 AM,35.6,28.4,75,30.31,10.0,North,13.8,20.7,N/A,,Scattered Clouds,360,2013-02-01 07:31:00
1:53 AM,34.0,24.1,67,30.33,10.0,North,12.7,20.7,N/A,,Clear,10,2013-02-01 07:53:00
2:53 AM,32.0,23.0,69,30.36,10.0,North,8.1,-,N/A,,Clear,350,2013-02-01 08:53:00
3:53 AM,30.0,19.0,64,30.38,10.0,North,9.2,-,N/A,,Clear,10,2013-02-01 09:53:00
4:53 AM,28.9,12.0,49,30.40,10.0,North,8.1,-,N/A,,Clear,10,2013-02-01 10:53:00
5:53 AM,28.0,9.0,45,30.44,10.0,NNE,11.5,-,N/A,,Clear,20,2013-02-01 11:53:00
6:53 AM,26.1,10.0,51,30.46,10.0,North,6.9,-,N/A,,Clear,10,2013-02-01 12:53:00
7:53 AM,27.0,14.0,58,30.48,10.0,NE,8.1,-,N/A,,Clear,40,2013-02-01 13:53:00
8:53 AM,28.0,8.1,43,30.51,10.0,NE,13.8,-,N/A,,Clear,40,2013-02-01 14:53:00
9:53 AM,28.9,9.0,43,30.53,10.0,NE,9.2,-,N/A,,Clear,50,2013-02-01 15:53:00
10:53 AM,30.9,10.9,43,30.52,10.0,NNE,6.9,-,N/A,,Clear,30,2013-02-01 16:53:00
11:53 AM,33.1,12.0,42,30.51,10.0,NE,5.8,-,N/A,,Clear,50,2013-02-01 17:53:00
12:53 PM,35.1,12.0,39,30.48,10.0,ENE,6.9,-,N/A,,Clear,60,2013-02-01 18:53:00
1:53 PM,37.0,10.9,34,30.45,10.0,NE,5.8,-,N/A,,Clear,50,2013-02-01 19:53:00
2:53 PM,39.0,10.9,32,30.44,10.0,Variable,3.5,-,N/A,,Clear,0,2013-02-01 20:53:00
3:53 PM,39.0,10.9,32,30.43,10.0,Calm,Calm,-,N/A,,Clear,0,2013-02-01 21:53:00
4:53 PM,37.9,9.0,30,30.41,10.0,Calm,Calm,-,N/A,,Clear,0,2013-02-01 22:53:00
5:53 PM,37.0,10.0,33,30.40,10.0,Calm,Calm,-,N/A,,Clear,0,2013-02-01 23:53:00
6:53 PM,35.1,10.9,37,30.40,10.0,ESE,3.5,-,N/A,,Clear,120,2013-02-02 00:53:00
7:53 PM,32.0,15.1,50,30.40,10.0,Calm,Calm,-,N/A,,Clear,0,2013-02-02 01:53:00
8:53 PM,30.0,17.1,59,30.40,10.0,Calm,Calm,-,N/A,,Clear,0,2013-02-02 02:53:00
9:53 PM,28.9,18.0,64,30.39,10.0,Calm,Calm,-,N/A,,Clear,0,2013-02-02 03:53:00
10:53 PM,26.1,21.0,81,30.36,10.0,South,5.8,-,N/A,,Clear,190,2013-02-02 04:53:00
11:53 PM,30.9,12.0,46,30.34,10.0,South,6.9,-,N/A,,Clear,170,2013-02-02 05:53:00